Flag for Austria Weather past 2 weeks in Enns, Upper Austria, Austria

Now
64 °F

Passing clouds.


Feels Like: 64 °F
Forecast: 57 / 76 °F
Wind: N/A

Location: Linz / Hoersching-Flughafen

Current Time: Jul 30, 2015 at 11:15:30 PM

Latest Report: Jul 30, 2015 at 10:00 PM


Visibility: 31 mi

Pressure: 29.99 "Hg

Humidity: 59%

Dew point: 50 °F

Location of EnnsLocation

Historic Weather in Enns — Graph

°F

Enns temperature yesterday

Maximum temperature yesterday: 72 °F (at 4:00 PM)
Minimum temperature yesterday: 55 °F (at 6:00 AM)
Average temperature yesterday: 64 °F

Past Weeks' High & Low Weather Summary

 TemperatureHumidityPressure
High97 °F (Jul 22, 3:00 PM)95% (Jul 20, 3:00 AM)30.11 "Hg (Jul 20, 3:00 AM)
Low55 °F (Jul 29, 6:00 AM)21% (Jul 22, 3:00 PM)29.66 "Hg (Jul 25, 3:00 AM)
Average73 °F62%29.90 "Hg
* Reported Jul 15 10:00 PM — Jul 30 10:00 PM, Enns, Weather by CustomWeather, © 2015

Note: Actual official high and low records may vary slightly from our data, if they occured in-between our weather recording intervals... More about our weather records

Advertising

Enns weather history for previous 24 hours

 ConditionsComfort  
Time TempWeatherWind HumidityBarometerVisibility
10:00 PM
Thu, Jul 30
64 °FPassing clouds.N/A59%29.99 "Hg31 mi
9:00 PM65 °FPassing clouds.N/A56%29.97 "Hg31 mi
8:00 PM67 °FScattered clouds.N/A48%29.96 "Hg31 mi
7:00 PM71 °FPassing clouds.3 mph38%29.94 "Hg19 mi
6:00 PM71 °FPassing clouds.5 mph37%29.94 "Hg14 mi
5:00 PM71 °FPassing clouds.5 mph40%29.95 "Hg25 mi
4:00 PM70 °FScattered clouds.3 mph41%29.96 "Hg16 mi
3:00 PM69 °FPartly sunny.5 mph44%29.97 "Hg19 mi
2:00 PM69 °FScattered clouds.6 mph43%29.97 "Hg22 mi
1:00 PM67 °FPartly sunny.5 mph47%29.98 "Hg25 mi
12:00 PM66 °FScattered clouds.N/A52%29.99 "Hg19 mi
11:00 AM64 °FScattered clouds.N/A58%29.99 "Hg22 mi
10:00 AM62 °FPassing clouds.N/A63%30.00 "Hg17 mi
9:00 AM60 °FScattered clouds.N/A73%30.00 "Hg17 mi
8:00 AM59 °FScattered clouds.N/A82%30.00 "Hg22 mi
7:00 AM56 °FPartly sunny.N/A88%30.01 "Hg18 mi
6:00 AM56 °FPartly sunny.N/A89%29.99 "Hg12 mi
5:00 AM57 °FPassing clouds.3 mph90%30.00 "Hg16 mi
4:00 AM57 °FPassing clouds.5 mph89%29.99 "Hg19 mi
3:00 AM58 °FPassing clouds.5 mph86%29.98 "Hg22 mi
2:00 AM60 °FOvercast.5 mph90%29.97 "Hg12 mi
1:00 AM60 °FOvercast.5 mph86%29.96 "Hg19 mi
12:00 AM61 °FRain showers. Overcast.8 mph83%29.94 "Hg25 mi
11:00 PM
Wed, Jul 29
62 °FRain showers. Overcast.6 mph90%29.89 "Hg12 mi
Weather by CustomWeather, © 2015

See weather overviewHow to use our weather pages